Location: Unspecified
(0.0000°N, 0.0000°E)
Time: 22:44:58
(UTC+00:00)

Vanguard 2 - Pass Details

Date: 08 October 2020
Orbit: 554 x 2937 km, 32.9° (Epoch: 27 October)

Event Time Altitude Azimuth Distance (km) Brightness Sun altitude
Rises 09:38:49 0° 314° (NW) 2,846 10.2 57.3°
Reaches altitude 10° 09:41:13 10° 320° (NW) 1,851 9.4 57.9°
Maximum altitude 09:45:04 47° 35° (NE) 729 8.4 58.9°
Drops below altitude 10° 09:49:08 10° 110° (ESE) 1,956 10.3 59.8°
Sets 09:51:44 0° 116° (ESE) 3,031 11.0 60.5°
